Weather Roundup
Issued by NWS

Home | Current Version | Previous Version | Text Only | Print | Product List | Glossary On
Versions: 1 2 3 4 5 6 7 8 9 10 11 12 13 14 15 16 17 18 19 20 21 22 23 24 25 26 27 28 29 30 31 32 33 34 35 36 37 38 39 40 41 42 43 44 45 46 47 48 49 50
042
NZUS93 KARX 300610
HRRWXR

CURRENT HOURLY OBSERVATIONS ACROSS
MUCH OF THE UPPER MISSISSIPPI VALLEY
NATIONAL WEATHER SERVICE LA CROSSE WI
100 AM CDT THU MAR 30 2017


...SOUTHEAST MINNESOTA...


CITY           SKY/WX    TMP DP  RH WIND       PRES   REMARKS
ROCHESTER      LGT RAIN  38  35  89 E18G26    30.00S WCI  28
ROCHESTER/MAYO CLOUDY    39  36  88 E10G24    30.01F WCI  32
WINONA         LGT RAIN  37  36  93 E7        30.05S WCI  32
AUSTIN         RAIN      37  34  87 E18G31    29.96F WCI  27
ALBERT LEA     LGT RAIN  37  37 100 E21G29    29.94F WCI  27
DODGE CENTER   LGT RAIN  37  36  93 E20G28    29.99F WCI  27
PRESTON        CLOUDY    36  34  92 E14       30.00S FOG     WCI  27
OWATONNA       CLOUDY    39  36  87 E14       29.99F WCI  31
FARIBAULT      DRIZZLE   39  37  93 NE9       30.02F WCI  33
$$

...ELSEWHERE IN MINNESOTA...


CITY           SKY/WX    TMP DP  RH WIND       PRES   REMARKS
MINNEAPOLIS    CLOUDY    42  36  79 E12       30.06F
INTNL FALLS    CLEAR     34  27  75 SE7       30.07F WCI  28
DULUTH         CLOUDY    31  29  92 E10       30.13S WCI  22
RED WING       DRIZZLE   41  36  81 E9G16     30.05S
REDWOOD FALLS  CLOUDY    40  37  89 E7        30.01F
MANKATO        LGT RAIN  40  37  89 NE14G21   30.00F WCI  32
WORTHINGTON    CLOUDY    37  36  96 NE15      29.94F WCI  28
FAIRMONT       CLOUDY    39  36  87 E22       29.93F WCI  29
$$

...SOUTHWEST WISCONSIN...


CITY           SKY/WX    TMP DP  RH WIND       PRES   REMARKS
LA CROSSE      CLOUDY    40  35  83 E12       30.04F WCI  33
PRAIRIE DU CHI LGT RAIN  38  38  97 NE9G18    29.98S WCI  32
BOSCOBEL       CLOUDY    40  50 100 NE9       29.99F WCI  34
LONE ROCK      CLOUDY    39  35  86 E14G24    30.00F WCI  31
PLATTEVILLE    CLOUDY    40  40 100 E23G31    29.92F WCI  30
FORT MC COY    CLOUDY    37  34  91 E8G17     30.06F WCI  30
CAMP DOUGLAS   CLOUDY    36  33  88 E14       30.05F WCI  27
MAUSTON-NEW LI CLOUDY    37  32  82 E9        30.05F WCI  30
VIROQUA        CLOUDY    36  33  88 E17       30.00F WCI  26
WIS DELLS      CLOUDY    36  31  83 E13G21    30.03F WCI  27
$$

...ELSEWHERE IN WISCONSIN...


CITY           SKY/WX    TMP DP  RH WIND       PRES   REMARKS
MILWAUKEE      CLOUDY    40  34  79 E21       30.05F WCI  30
MADISON        LGT RAIN  37  35  92 E15       30.02F WCI  28
GREEN BAY      LGT RAIN  35  34  96 NE12      30.14F WCI  27
EAU CLAIRE     CLOUDY    39  36  89 E10       30.07F WCI  32
BLACK RVR FLS  LGT RAIN  36  36 100 E8        30.06F WCI  29
MEDFORD        CLOUDY    34  29  81 E10       30.08F WCI  26
WAUSAU         CLOUDY    35  26  69 E8        30.09F WCI  29
WIS RAPIDS     FLURRIES  34  34 100 E10       30.09F WCI  26
MARSHFIELD     MIX PCPN  34  32  92 E14       30.07F WCI  25
RICE LAKE      CLOUDY    40  33  76 CALM      30.10F
$$

...NORTHEAST IOWA...


CITY           SKY/WX    TMP DP  RH WIND       PRES   REMARKS
WATERLOO       CLOUDY    40  37  89 E15G28    29.89F WCI  32
DUBUQUE        LGT RAIN  40  38  93 E21G29    29.91F WCI  30
DECORAH        MIX PCPN  37  36  93 E17G24    29.95F WCI  28
MASON CITY     CLOUDY    38  37  97 E22G31    29.90F WCI  27
CHARLES CITY   CLOUDY    39  39 100 E21G28    29.90F FOG     WCI  29
OELWEIN        LGT RAIN  39  39 100 E21G28    29.91F WCI  29
$$

...ELSEWHERE IN IOWA...


CITY           SKY/WX    TMP DP  RH WIND       PRES   REMARKS
DES MOINES     CLOUDY    44  41  89 E13G24    29.79F
IOWA CITY      HVY RAIN  44  40  85 E15G24    29.86F FOG
FORT DODGE     CLOUDY    39  36  87 E20G28    29.86F WCI  30
MARSHALLTOWN   CLOUDY    41  39  93 E23       29.82F
CEDAR RAPIDS   LGT RAIN  41  41 100 E22G29    29.85F FOG
$$

...NORTHERN ILLINOIS...


CITY           SKY/WX    TMP DP  RH WIND       PRES   REMARKS
CHICAGO-OHARE  LGT RAIN  43  38  82 NE18      29.97F
CHICAGO-MIDWAY RAIN      44  40  85 NE17G24   29.99F FOG
MOLINE         TSTM      44  40  85 E18       29.86R FOG
ROCKFORD       LGT RAIN  43  39  86 E15       29.96F
PEORIA         TSTM      47  46  97 NE14      29.82R
$$

NOTE: "FAIR" INDICATES FEW OR NO CLOUDS BELOW 12,000 FEET WITH NO
SIGNIFICANT WEATHER AND/OR OBSTRUCTIONS TO VISIBILITY. WIND
SPEEDS ARE IN MILES-PER-HOUR.




USA.gov is the U.S. government's official web portal to all federal, state and local government web resources and services.